INTELSAT NEW DAWN       
1 37392U 11016A   19264.22039737  .00000151  00000-0  00000+0 0  9994
2 37392   0.0168 176.4817 0000358  51.9042 243.5992  1.00273375 30849
YAHSAT 1A               
1 37393U 11016B   19265.14016440  .00000094  00000-0  00000+0 0  9999
2 37393   0.0213 163.9842 0002160  42.6912 256.9979  1.00273686 30899
ARIANE 5 R/B            
1 37394U 11016C   19265.18518759  .00002498  00000-0  36766-3 0  9996
2 37394   5.6178  20.3878 6990542 115.8764 329.5219  2.67016657 76206